Location: Haieshausen
(51.8387°N, 9.9720°E)
Time: 02:15:50
(UTC+00:00)

Tsikada Rocket - Visible Passes

Search period start: 21 October 2020 00:00
Search period end: 31 October 2020 00:00
Orbit: 957 x 1010 km, 82.9° (Epoch: 20 October)

Date Brightness Start Highest point End Pass type
(mag) Time Alt. Az. Time Alt. Az. Time Alt. Az.
21 Oct 6.3 01:20:58 13° ESE 01:23:51 17° ENE 01:27:38 10° NE visible
21 Oct 3.9 03:05:52 37° S 03:08:29 85° E 03:14:42 10° N visible
21 Oct 5.1 04:50:47 12° WSW 04:54:55 21° WNW 04:59:33 10° N visible
22 Oct 5.6 01:49:37 26° ESE 01:51:12 29° E 01:56:24 10° NNE visible
22 Oct 4.0 03:34:30 41° SW 03:36:24 58° WNW 03:42:31 10° N visible
22 Oct 5.6 05:20:39 10° W 05:23:29 13° NW 05:26:20 10° NNW visible
23 Oct 4.6 02:18:06 48° ESE 02:18:45 49° E 02:24:40 10° NNE visible
23 Oct 4.5 04:02:59 31° W 04:04:32 35° WNW 04:10:10 10° N visible
24 Oct 6.2 01:01:35 17° E 01:01:53 17° ENE 01:05:35 10° NE visible
24 Oct 3.9 02:46:28 84° E 02:46:28 84° E 02:52:42 10° NNE visible
24 Oct 5.1 04:31:21 20° W 04:32:53 22° WNW 04:37:34 10° N visible
25 Oct 5.6 01:29:53 28° ENE 01:29:53 28° ENE 01:34:23 10° NNE visible
25 Oct 4.0 03:14:46 58° WNW 03:14:46 58° WNW 03:20:32 10° N visible
25 Oct 5.6 04:59:39 12° WNW 05:01:27 14° NW 05:04:26 10° NNW visible
26 Oct 5.0 01:58:07 41° NE 01:58:07 41° NE 02:02:40 10° NNE visible
26 Oct 4.6 03:42:59 35° WNW 03:42:59 35° WNW 03:48:11 10° N visible
27 Oct 6.4 00:41:25 15° ENE 00:41:25 15° ENE 00:43:32 10° NE visible
27 Oct 4.6 02:26:17 49° NNE 02:26:17 49° NNE 02:30:42 10° NNE visible
27 Oct 5.1 04:11:09 22° NW 04:11:09 22° NW 04:15:37 10° N visible
28 Oct 6.0 01:09:32 22° NE 01:09:32 22° NE 01:12:22 10° NNE visible
28 Oct 4.7 02:54:24 41° NNW 02:54:24 41° NNW 02:58:33 10° N visible
28 Oct 5.6 04:39:15 14° NW 04:39:25 14° NW 04:42:30 10° NNW visible
29 Oct 5.6 01:37:37 28° NE 01:37:37 28° NE 01:40:40 10° NNE visible
29 Oct 5.0 03:22:28 30° NNW 03:22:28 30° NNW 03:26:13 10° N visible
30 Oct 6.7 00:20:47 12° NE 00:20:47 12° NE 00:21:29 10° NE visible
30 Oct 5.4 02:05:39 31° NNE 02:05:39 31° NNE 02:08:42 10° NNE visible
30 Oct 5.4 03:50:30 20° NW 03:50:30 20° NW 03:53:39 10° N visible
